Location: Ajisawe
(8.4333°N, 4.3833°E)
Time: 23:28:45
(UTC+00:00)

Vanguard 1 Rocket - Pass Details

Date: 23 April 2021
Orbit: 652 x 4224 km, 34.3° (Epoch: 10 May)

Event Time Altitude Azimuth Distance (km) Brightness Sun altitude
Exits shadow 03:36:15 - 208° (SSW) 7,879 11.8 -27.9°
Reaches altitude 10° 03:43:25 10° 194° (SSW) 7,414 11.7 -26.2°
Maximum altitude 03:56:04 15° 164° (SSE) 6,821 11.8 -23.2°
Drops below altitude 10° 04:07:27 10° 134° (SE) 6,720 12.2 -20.5°
Sets 04:16:00 0° 113° (ESE) 7,062 12.7 -18.5°
